Torna al catalogo

FENGYUN 1C DEB

AttivoPO
NORAD 31644·DEBRIS·🇨🇳 China

Lanciato May 10, 1999 da Taiyuan Satellite Launch Center

Loading…

Prossimi Passaggi (prossime 24 ore)

TLE

AggiornatoSource: Space-Track

Epoca: Sep 13, 2026, 14:03 UTC

1 31644U 99025CBA 26256.58562882  .00005267  00000-0  73210-3 0  9994
2 31644  98.6476 168.1359 0148705  44.3075  75.0057 14.70936264750818

Traccia FENGYUN 1C DEB in tempo reale con AllMySat

Download on the App Store